Regional Weather Roundup
Issued by NWS

Home | Current Version | Previous Version | Text Only | Print | Product List | Glossary On
Versions: 1 2 3 4 5 6 7 8 9 10 11 12 13 14 15 16 17 18 19 20 21 22 23 24 25 26 27 28 29 30 31 32 33 34 35 36 37 38 39 40 41 42 43 44 45 46 47 48 49 50
000
ASUS43 KMKX 301800
RWRWI

WISCONSIN REGIONAL WEATHER ROUNDUP
NATIONAL WEATHER SERVICE MILWAUKEE/SULLIVAN WI
100 PM CDT FRI SEP 30 2016

NOTE: "FAIR" INDICATES FEW OR NO CLOUDS BELOW 12,000 FEET WITH NO
SIGNIFICANT WEATHER AND/OR OBSTRUCTIONS TO VISIBILITY.

WIZ001-002-006>008-014>016-023>028-301900-
NORTHWEST WISCONSIN

CITY           SKY/WX    TMP DP  RH WIND       PRES   REMARKS
SUPERIOR ARPT  CLOUDY    55  50  85 NE10      30.43S
ASHLAND        CLOUDY    56  53  90 NE13      30.41F
6HR MIN TEMP:  53; 6HR MAX TEMP:  57;

HAYWARD        SUNNY     65  51  60 NE13      30.37F
6HR MIN TEMP:  49; 6HR MAX TEMP:  65;

SIREN          SUNNY     64  51  63 NE8       30.36F
CUMBERLAND     SUNNY     63  46  55 NE9G16    30.35F
RICE LAKE      SUNNY     67  49  52 N10       30.35F
CHETEK         NOT AVBL
LADYSMITH      PTSUNNY   66  51  59 NE9       30.35F
EAU CLAIRE     NOT AVBL
MENOMONIE      SUNNY     70  50  50 NE9       30.32F HAZE
NEW RICHMOND   SUNNY     68  49  50 NE8       30.33F
OSCEOLA        SUNNY     65  54  66 N6        30.37F
$$

WIZ003>005-009-010-017-018-301900-
NORTH CENTRAL WISCONSIN

CITY           SKY/WX    TMP DP  RH WIND       PRES   REMARKS
MANITOWISH WTR NOT AVBL
ARBOR VITAE    SUNNY     65  50  59 NE6       30.35F
WOODRUFF       SUNNY     65  50  59 NE6       30.35F
RHINELANDER    SUNNY     67  48  50 E12       30.34F
6HR MIN TEMP:  47; 6HR MAX TEMP:  67;

EAGLE RIVER    SUNNY     65  47  52 E13G23    30.35F
LAND O LAKES   SUNNY     66  49  53 NE10G20   30.38F
PHILLIPS       SUNNY     65  51  59 NE8       30.34F
TOMAHAWK       SUNNY     66  47  48 NE7       30.33F
MEDFORD        CLOUDY    69  46  43 E13G18    30.31F HAZE
MERRILL        SUNNY     68  47  47 E13G21    30.32F
$$

WIZ029-030-035-036-043>047-301900-
CENTRAL WISCONSIN

CITY           SKY/WX    TMP DP  RH WIND       PRES   REMARKS
WAUSAU         MOSUNNY   69  50  50 E10G20    30.28F
6HR MIN TEMP:  50; 6HR MAX TEMP:  69;

MOSINEE        PTSUNNY   66  52  59 NE12G17   30.29F
MARSHFIELD     MOSUNNY   69  50  50 E10       30.27F
6HR MIN TEMP:  52; 6HR MAX TEMP:  70;

STEVENS POINT  PTSUNNY   64  52  66 E16G23    30.29F
WAUPACA        CLOUDY    63  57  81 N8G18     30.28F
WAUTOMA        LGT RAIN  59  58  96 NE10      30.26F
6HR MIN TEMP:  56; 6HR MAX TEMP:  60; 6HR PCP: TRACE;

WISC RAPIDS    PTSUNNY   66  54  65 E14G21    30.28F
6HR MIN TEMP:  53; 6HR MAX TEMP:  67;

CAMP DOUGLAS   NOT AVBL
$$

WIZ011>013-019>022-031-037>040-048>050-301900-
NORTHEAST WISCONSIN

CITY           SKY/WX    TMP DP  RH WIND       PRES   REMARKS
ANTIGO         MOSUNNY   65  50  58 E14       30.32F
SHAWANO        CLOUDY    64  55  73 NE13G21   30.30F
OCONTO         NOT AVBL
STURGEON BAY   CLOUDY    62  56  80 NE10G21   30.29
6HR MIN TEMP:  62; 6HR MAX TEMP:  63;

GREEN BAY      CLOUDY    62  59  90 NE17      30.27F
6HR MIN TEMP:  58; 6HR MAX TEMP:  62; 6HR PCP: TRACE;

MANITOWOC      NOT AVBL
APPLETON       LGT RAIN  59  59 100 NE12      30.25F FOG
CLINTONVILLE   CLOUDY    61  54  77 NE12      30.29F
OSHKOSH        CLOUDY    60  58  92 NE13      30.24F
6HR MIN TEMP:  59; 6HR MAX TEMP:  61; 6HR PCP: TRACE;

$$

WIZ032>034-041-042-053>061-301900-
SOUTHWEST WISCONSIN

CITY           SKY/WX    TMP DP  RH WIND       PRES   REMARKS
LA CROSSE      CLOUDY    68  56  65 E7        30.26F
6HR MIN TEMP:  53; 6HR MAX TEMP:  68;

SPARTA         CLOUDY    63  55  76 E7        30.28F
VIROQUA        CLOUDY    60  55  82 NE10      30.27F
BOSCOBEL       CLOUDY    63  56  78 VRB6      30.24F
6HR MIN TEMP:  59; 6HR MAX TEMP:  63;

PRAIRIE DU CHI CLOUDY    62  53  73 NE6       30.24F
PLATTEVILLE    CLOUDY    61  58  92 NE10      30.23S
$$

WIZ056-057-062-063-064-067-068-301900-
SOUTH CENTRAL WISCONSIN

CITY           SKY/WX    TMP DP  RH WIND       PRES   REMARKS
REEDSBURG      NOT AVBL
BARABOO/DELLS  CLOUDY    60  55  84 NE10      30.24F
LONE ROCK      NOT AVBL
MINERAL POINT  CLOUDY    61  57  88 NE8       30.23S
MADISON        DRIZZLE   61  58  90 NE14      30.21F
6HR MIN TEMP:  57; 6HR MAX TEMP:  63; 6HR PCP: TRACE;

MIDDLETON      CLOUDY    62  60  92 N9        30.22F
WATERTOWN      CLOUDY    60  60 100 NE13      30.21S FOG
MONROE         CLOUDY    63  57  82 N17       30.18F
JANESVILLE     CLOUDY    64  59  82 NE15G21   30.18F
$$

WIZ051-052-058>065-066-070>072-301900-
SOUTHEAST WISCONSIN

CITY           SKY/WX    TMP DP  RH WIND       PRES   REMARKS
MILWAUKEE      CLOUDY    63  59  87 NE13      30.19F
6HR MIN TEMP:  59; 6HR MAX TEMP:  63; 6HR PCP:  0.17;

WAUKESHA       CLOUDY    57  57 100 NE9G16    30.20F FOG
MILWAUKEE/TIMM CLOUDY    59  55  88 NE9G17    30.20F
RACINE         CLOUDY    62  59  90 NE12      30.19F
6HR MIN TEMP:  61; 6HR MAX TEMP:  64; 6HR PCP:  0.09;

BURLINGTON     CLOUDY    60  58  94 NE9G17    30.18F
KENOSHA        CLOUDY    63  60  90 NE14      30.16F
6HR MIN TEMP:  60; 6HR MAX TEMP:  63; 6HR PCP:  0.17;

FOND DU LAC    CLOUDY    62  58  86 NE13      30.24F
6HR MIN TEMP:  59; 6HR MAX TEMP:  62; 6HR PCP:  0.04;

SHEBOYGAN      CLOUDY    61  57  87 NE17      30.23F
6HR MIN TEMP:  59; 6HR MAX TEMP:  61; 6HR PCP:  0.07;

WEST BEND      CLOUDY    68  68 100 NE10G16   30.22F
JUNEAU         CLOUDY    60  56  84 NE12G21   30.24S
$$

LSZ147-162-301900-
LAKE SUPERIOR

STATION/POSITION TIME  TEMP    WIND        PRES    WAVE
                       AIR SEA DIR/SP/G            HT/PER
                 (UTC) (F)     (DEG/KT/KT) (MB)    (FT/S)
W MID LAKE BUOY  1650   55 55   60/ 12/ 14 1030.4F   2/ 4
DEVILS ISLAND    1700   53      20/ 10/ 11 1031.0F
SAXON HARBOR     1700   56     360/  4/  6 1029.8
$$

LMZ867-665-643>646-301900-
LAKE MICHIGAN

STATION/POSITION TIME  TEMP    WIND        PRES    WAVE
                       AIR SEA DIR/SP/G            HT/PER
                 (UTC) (F)     (DEG/KT/KT) (MB)    (FT/S)
CHAMBERS ISLAND  1700   61      20/ 17/ 20 1026.4S
S GREEN BAY BUOY 1600   61 62   50/ 19/ 23 1025.4R
N MID LAKE BUOY  1650   62 65   70/ 16/ 19 1026.0R   4/ 5
NORTHPORT PIER   1700   62      60/ 14/ 18 1026.8S
SISTER BAY       1608   64      90/  8/ 16   N/A
KEWAUNEE LAKESHO 1700   62      50/ 10/ 17 1024.5F
SHEBOYGAN LAKESH 1700   60      40/ 15/ 16 1023.9F
PORT WASHINGTON  1700   61      60/ 10/ 16 1024.0
ATWATER BUOY     1700   58 53   50/ 10/ 12 1022.7F
MILWAUKEE LAKESH 1710   57      40/ 11/ 12   N/A
S MID LAKE BUOY  1650   63 67   70/ 19/ 27 1020.6F   5/ 5
KENOSHA   LAKESH 1700   62      60/ 19/ 21 1021.3F
$$

TC  - TEMPERATURE IN CELSIUS
VSB - VISIBILITY IN STATUTE MILES
WCI - WIND CHILL INDEX
HX  - HEAT INDEX





USA.gov is the U.S. government's official web portal to all federal, state and local government web resources and services.